Lufkin, TX

9:25 PM CDT on October 19, 2017 (GMT -0500)
Angelina County

Weather History for KLFK - March, 2012

Change the Weather History Date:

Tuesday, March 13, 2012

  Actual Average Record
Temperature  
Mean Temperature 74 °F 59 °F  
Max Temperature 81 °F 71 °F 89 °F (1918)
Min Temperature 66 °F 47 °F 20 °F (1948)
Degree Days  
Heating Degree Days 0 7  
Month to date heating degree days 57 111  
Since 1 July heating degree days 1404 1745  
Cooling Degree Days 9 1  
Month to date cooling degree days 33 13  
Year to date cooling degree days 88 32  
Growing Degree Days 23 (Base 50)    
Moisture  
Dew Point 65 °F    
Average Humidity 76    
Maximum Humidity 90    
Minimum Humidity 62    
Precipitation  
Precipitation 0.00 in 0.11 in 3.04 in (1995)
Month to date precipitation 6.68 1.65  
Year to date precipitation 15.40 9.70  
Snow  
Snow 0.00 in - - ()
Month to date snowfall 0.0  
Since 1 July snowfall 0.0  
Snow Depth 0.00 in    
Sea Level Pressure  
Sea Level Pressure 30.13 in    
Wind  
Wind Speed 6 mph (South)    
Max Wind Speed 17 mph    
Max Gust Speed 23 mph    
Visibility 9 miles    
Events      
T = Trace of Precipitation, MM = Missing Value Source: NWS Daily Summary

Daily Weather History Graph

Daily Weather History Graph

Search for Another Location

Airport or City:

Trip Planner

Search our weather history database for the weather conditions in past years. The results will help you decide how hot, cold, wet, or windy it might be!

Date:

Astronomy

Mar. 13, 2012 Rise Set
Actual Time 7:30 AM CDT 7:26 PM CDT
Civil Twilight 7:06 AM CDT 7:50 PM CDT
Nautical Twilight 6:38 AM CDT 8:18 PM CDT
Astronomical Twilight 6:10 AM CDT 8:46 PM CDT
Moon 12:34 AM CDT (3/13) 11:09 AM CDT (3/13)
Length of Visible Light 12h 43m
Length of Day
11h 55m
Waning Gibbous, 65% of the Moon is Illuminated
Mar 13
Waning Gibbous
Mar 14
Last Quarter
Mar 22
New
Mar 30
First Quarter
Apr 6
Full

Hourly Weather History & Observations

Time (CDT) Temp. Heat Index Dew Point Humidity Pressure Visibility Wind Dir Wind Speed Gust Speed Precip Events Conditions
12:03 AM 69.8 °F - 66.2 °F 88% 30.11 in 6.0 mi SSE 8.1 mph - N/A   Mostly Cloudy
12:53 AM 69.1 °F - 66.9 °F 93% 30.10 in 6.0 mi South 6.9 mph - N/A   Overcast
1:50 AM 69.8 °F - 66.2 °F 88% 30.12 in 6.0 mi South 6.9 mph - N/A   Overcast
1:53 AM 70.0 °F - 66.9 °F 90% 30.11 in 6.0 mi South 8.1 mph - N/A   Overcast
2:53 AM 70.0 °F - 66.0 °F 87% 30.11 in 8.0 mi SSE 5.8 mph - N/A   Overcast
3:47 AM 69.8 °F - 66.2 °F 88% 30.11 in 9.0 mi South 5.8 mph - N/A   Overcast
3:48 AM 69.8 °F - 66.2 °F 88% 30.11 in 9.0 mi South 5.8 mph - N/A   Overcast
4:53 AM 69.1 °F - 64.0 °F 84% 30.09 in 10.0 mi South 6.9 mph - N/A   Overcast
5:53 AM 68.0 °F - 63.0 °F 84% 30.10 in 10.0 mi Calm Calm - N/A   Mostly Cloudy
6:53 AM 66.9 °F - 63.0 °F 87% 30.11 in 10.0 mi Calm Calm - N/A   Overcast
8:53 AM 68.0 °F - 64.9 °F 90% 30.14 in 8.0 mi SE 3.5 mph - N/A   Overcast
9:03 AM 69.8 °F - 64.4 °F 83% 30.15 in 10.0 mi SE 3.5 mph - N/A   Overcast
9:38 AM 69.8 °F - 66.2 °F 88% 30.16 in 10.0 mi South 8.1 mph - N/A   Overcast
9:53 AM 70.0 °F - 66.0 °F 87% 30.15 in 10.0 mi South 5.8 mph - N/A   Overcast
10:19 AM 71.6 °F - 66.2 °F 83% 30.17 in 10.0 mi South 5.8 mph - N/A   Overcast
10:53 AM 73.9 °F - 66.0 °F 76% 30.16 in 10.0 mi SSW 6.9 mph - N/A   Overcast
11:06 AM 73.4 °F - 66.2 °F 78% 30.17 in 10.0 mi SSW 4.6 mph - N/A   Overcast
11:37 AM 75.2 °F - 66.2 °F 73% 30.17 in 10.0 mi SSW 4.6 mph - N/A   Overcast
11:53 AM 75.0 °F - 64.9 °F 71% 30.17 in 10.0 mi SSW 8.1 mph - N/A   Overcast
12:05 PM 75.2 °F - 64.4 °F 69% 30.18 in 10.0 mi SSW 3.5 mph - N/A   Overcast
12:30 PM 75.2 °F - 66.2 °F 73% 30.18 in 10.0 mi SSW 5.8 mph - N/A   Overcast
12:41 PM 75.2 °F - 66.2 °F 73% 30.17 in 10.0 mi SW 5.8 mph - N/A   Overcast
12:53 PM 75.9 °F - 66.0 °F 71% 30.17 in 10.0 mi SW 6.9 mph - N/A   Overcast
1:08 PM 77.0 °F - 66.2 °F 69% 30.17 in 10.0 mi SW 5.8 mph - N/A   Overcast
1:53 PM 78.1 °F - 66.0 °F 66% 30.14 in 10.0 mi South 8.1 mph - N/A   Mostly Cloudy
2:53 PM 80.1 °F 82.1 °F 66.0 °F 62% 30.12 in 10.0 mi Variable 6.9 mph - N/A   Mostly Cloudy
3:53 PM 80.1 °F 82.1 °F 66.0 °F 62% 30.09 in 10.0 mi South 12.7 mph 17.3 mph N/A   Partly Cloudy
4:53 PM 80.1 °F 82.1 °F 66.0 °F 62% 30.08 in 10.0 mi SSE 9.2 mph - N/A   Partly Cloudy
5:53 PM 78.1 °F - 66.0 °F 66% 30.07 in 10.0 mi SSE 10.4 mph 23.0 mph N/A   Clear
6:53 PM 75.9 °F - 64.9 °F 69% 30.08 in 10.0 mi South 8.1 mph - N/A   Clear
7:53 PM 73.0 °F - 64.9 °F 76% 30.08 in 10.0 mi SSE 3.5 mph - N/A   Clear
8:53 PM 73.0 °F - 64.9 °F 76% 30.10 in 10.0 mi South 8.1 mph - N/A   Clear
9:53 PM 71.1 °F - 64.0 °F 78% 30.12 in 10.0 mi SSE 9.2 mph - N/A   Clear
10:53 PM 69.1 °F - 64.0 °F 84% 30.13 in 10.0 mi South 6.9 mph - N/A   Partly Cloudy
11:35 PM 69.8 °F - 64.4 °F 83% 30.14 in 10.0 mi SSE 8.1 mph - N/A   Mostly Cloudy
11:53 PM 68.0 °F - 64.0 °F 87% 30.14 in 10.0 mi SSE 6.9 mph - N/A   Scattered Clouds